M I D A S
Marine Information and Data Acquisition System
Tripno 1569 of the Zeeleeuw from 2008-09-18 06:54:27 to 2008-09-18 15:29:25
Back to CruiseResearch ActivitiesStationsMapUnderway DataData graphs

EquipmentUnitsComment
TimeDGPSUTC
LatitudeDGPSDM.mWGS84
LongitudeDGPSDM.mWGS84
HeadingGyrodeg 
SOGDGPSknotsSpeed over ground
COGDGPSdegCourse over ground
DepthEcho soundermeters200 kHz
Missing or incorrect values are displayed as -999
Navigation data collected by the RV Zeeleeuw from 2008-09-18 06:54:27 to 2008-09-18 15:29:25
                                                                                    Next 1000 lines
Time Latitude Longitude Heading SOG COG Depth
2008-09-18 06:54:40 51°13.623 2°56.048 122.7 0.1 200 -999
2008-09-18 06:54:50 51°13.623 2°56.048 122.7 0.1 200 -999
2008-09-18 06:55:00 51°13.623 2°56.047 124.2   213 -999
2008-09-18 06:55:10 51°13.623 2°56.047 124.2   213 -999
2008-09-18 06:55:20 51°13.623 2°56.048 124.2   213 -999
2008-09-18 06:55:30 51°13.623 2°56.048 124.2   213 -999
2008-09-18 06:55:40 51°13.623 2°56.048 124.2   213 -999
2008-09-18 06:55:50 51°13.623 2°56.048 124.2   213 -999
2008-09-18 06:56:00 51°13.622 2°56.047 117.2 0.1 197 -999
2008-09-18 06:56:10 51°13.622 2°56.047 117.2 0.1 197 -999
2008-09-18 06:56:20 51°13.622 2°56.047 117.2 0.1 197 -999
2008-09-18 06:56:30 51°13.622 2°56.047 117.2 0.1 197 -999
2008-09-18 06:56:40 51°13.622 2°56.046 117.2 0.1 197 -999
2008-09-18 06:56:50 51°13.623 2°56.04 117.2 0.1 197 -999
2008-09-18 06:57:00 51°13.625 2°56.033 108.5 2.2 289 -999
2008-09-18 06:57:10 51°13.628 2°56.022 108.5 2.2 289 -999
2008-09-18 06:57:20 51°13.632 2°56.007 108.5 2.2 289 -999
2008-09-18 06:57:30 51°13.636 2°55.993 108.5 2.2 289 -999
2008-09-18 06:57:40 51°13.641 2°55.976 108.5 2.2 289 -999
2008-09-18 06:57:50 51°13.646 2°55.956 108.5 2.2 289 -999
2008-09-18 06:58:00 51°13.65 2°55.939 112 4.7 293 -999
2008-09-18 06:58:10 51°13.656 2°55.92 112 4.7 293 -999
2008-09-18 06:58:20 51°13.662 2°55.898 112 4.7 293 -999
2008-09-18 06:58:30 51°13.667 2°55.882 112 4.7 293 -999
2008-09-18 06:58:40 51°13.672 2°55.863 112 4.7 293 -999
2008-09-18 06:58:50 51°13.676 2°55.848 112 4.7 293 -999
2008-09-18 06:59:00 51°13.68 2°55.833 110.9 3.7 292 -999
2008-09-18 06:59:10 51°13.684 2°55.818 110.9 3.7 292 -999
2008-09-18 06:59:20 51°13.687 2°55.803 110.9 3.7 292 -999
2008-09-18 06:59:30 51°13.69 2°55.79 110.9 3.7 292 -999
2008-09-18 06:59:40 51°13.692 2°55.776 110.9 3.7 292 -999
2008-09-18 06:59:50 51°13.694 2°55.766 110.9 3.7 292 -999
2008-09-18 07:00:00 51°13.695 2°55.755 97.5 2.29 282 -999
2008-09-18 07:00:10 51°13.696 2°55.747 97.5 2.29 282 -999
2008-09-18 07:00:20 51°13.697 2°55.741 97.5 2.29 282 -999
2008-09-18 07:00:30 51°13.698 2°55.739 97.5 2.29 282 -999
2008-09-18 07:00:40 51°13.699 2°55.743 97.5 2.29 282 -999
2008-09-18 07:00:50 51°13.702 2°55.747 97.5 2.29 282 -999
2008-09-18 07:01:00 51°13.703 2°55.749 56.2 0.4 23 -999
2008-09-18 07:01:10 51°13.702 2°55.747 56.2 0.4 23 -999
2008-09-18 07:01:20 51°13.7 2°55.744 56.2 0.4 23 -999
2008-09-18 07:01:30 51°13.696 2°55.738 56.2 0.4 23 -999
2008-09-18 07:01:40 51°13.693 2°55.734 56.2 0.4 23 -999
2008-09-18 07:01:50 51°13.692 2°55.732 56.2 0.4 23 -999
2008-09-18 07:02:00 51°13.696 2°55.733 20.5 1.6 11 -999
2008-09-18 07:02:10 51°13.703 2°55.732 20.5 1.6 11 -999
2008-09-18 07:02:20 51°13.712 2°55.728 20.5 1.6 11 -999
2008-09-18 07:02:30 51°13.725 2°55.72 20.5 1.6 11 -999
2008-09-18 07:02:40 51°13.74 2°55.707 20.5 1.6 11 -999
2008-09-18 07:02:50 51°13.755 2°55.696 20.5 1.6 11 -999
2008-09-18 07:03:00 51°13.771 2°55.682 333 6.79 333 -999
2008-09-18 07:03:10 51°13.788 2°55.668 333 6.79 333 -999
2008-09-18 07:03:20 51°13.804 2°55.656 333 6.79 333 -999
2008-09-18 07:03:30 51°13.82 2°55.643 333 6.79 333 -999
2008-09-18 07:03:40 51°13.836 2°55.631 333 6.79 333 -999
2008-09-18 07:03:50 51°13.851 2°55.619 333 6.79 333 -999
2008-09-18 07:04:00 51°13.867 2°55.607 334.8 6.2 334 -999
2008-09-18 07:04:10 51°13.884 2°55.593 334.8 6.2 334 -999
2008-09-18 07:04:20 51°13.898 2°55.582 334.8 6.2 334 -999
2008-09-18 07:04:30 51°13.913 2°55.57 334.8 6.2 334 -999
2008-09-18 07:04:40 51°13.93 2°55.556 334.8 6.2 334 -999
2008-09-18 07:04:50 51°13.944 2°55.545 334.8 6.2 334 -999
2008-09-18 07:05:00 51°13.959 2°55.533 334.1 6.2 334 -999
2008-09-18 07:05:10 51°13.976 2°55.52 334.1 6.2 334 -999
2008-09-18 07:05:20 51°13.99 2°55.509 334.1 6.2 334 -999
2008-09-18 07:05:30 51°14.005 2°55.497 334.1 6.2 334 -999
2008-09-18 07:05:40 51°14.02 2°55.486 334.1 6.2 334 -999
2008-09-18 07:05:50 51°14.036 2°55.474 334.1 6.2 334 -999
2008-09-18 07:06:00 51°14.053 2°55.461 334.6 6.09 335 -999
2008-09-18 07:06:10 51°14.067 2°55.451 334.6 6.09 335 -999
2008-09-18 07:06:20 51°14.082 2°55.439 334.6 6.09 335 -999
2008-09-18 07:06:30 51°14.099 2°55.426 334.6 6.09 335 -999
2008-09-18 07:06:40 51°14.114 2°55.415 334.6 6.09 335 -999
2008-09-18 07:06:50 51°14.13 2°55.401 334.6 6.09 335 -999
2008-09-18 07:07:00 51°14.149 2°55.386 334.3 7.59 332 -999
2008-09-18 07:07:10 51°14.168 2°55.368 334.3 7.59 332 -999
2008-09-18 07:07:20 51°14.188 2°55.349 334.3 7.59 332 -999
2008-09-18 07:07:30 51°14.207 2°55.327 334.3 7.59 332 -999
2008-09-18 07:07:40 51°14.227 2°55.303 334.3 7.59 332 -999
2008-09-18 07:07:50 51°14.246 2°55.278 334.3 7.59 332 -999
2008-09-18 07:08:00 51°14.264 2°55.249 319.6 9.19 315 -999
2008-09-18 07:08:10 51°14.282 2°55.22 319.6 9.19 315 -999
2008-09-18 07:08:20 51°14.299 2°55.189 319.6 9.19 315 -999
2008-09-18 07:08:30 51°14.316 2°55.158 319.6 9.19 315 -999
2008-09-18 07:08:40 51°14.333 2°55.125 319.6 9.19 315 -999
2008-09-18 07:08:50 51°14.349 2°55.092 319.6 9.19 315 -999
2008-09-18 07:09:00 51°14.367 2°55.054 308.3 9.69 307 -999
2008-09-18 07:09:10 51°14.383 2°55.023 308.3 9.69 307 -999
2008-09-18 07:09:20 51°14.402 2°54.992 308.3 9.69 307 -999
2008-09-18 07:09:30 51°14.422 2°54.962 308.3 9.69 307 -999
2008-09-18 07:09:40 51°14.444 2°54.934 308.3 9.69 307 -999
2008-09-18 07:09:50 51°14.466 2°54.907 308.3 9.69 307 -999
2008-09-18 07:10:00 51°14.489 2°54.881 328 10.4 325 -999
2008-09-18 07:10:10 51°14.513 2°54.853 328 10.4 325 -999
2008-09-18 07:10:20 51°14.537 2°54.824 328 10.4 325 -999
2008-09-18 07:10:30 51°14.562 2°54.795 328 10.4 325 -999
2008-09-18 07:10:40 51°14.591 2°54.763 328 10.4 325 -999
2008-09-18 07:10:50 51°14.615 2°54.736 328 10.4 325 -999
2008-09-18 07:11:00 51°14.641 2°54.706 332.6 11.9 325 -999
2008-09-18 07:11:10 51°14.668 2°54.675 332.6 11.9 325 -999
2008-09-18 07:11:20 51°14.695 2°54.643 332.6 11.9 325 -999
2008-09-18 07:11:30 51°14.722 2°54.611 332.6 11.9 325 -999
2008-09-18 07:11:40 51°14.75 2°54.58 332.6 11.9 325 -999
2008-09-18 07:11:50 51°14.777 2°54.549 332.6 11.9 325 -999
2008-09-18 07:12:00 51°14.804 2°54.519 331.3 12 326 -999
2008-09-18 07:12:10 51°14.832 2°54.489 331.3 12 326 -999
2008-09-18 07:12:20 51°14.86 2°54.461 331.3 12 326 -999
2008-09-18 07:12:30 51°14.888 2°54.432 331.3 12 326 -999
2008-09-18 07:12:40 51°14.916 2°54.404 331.3 12 326 -999
2008-09-18 07:12:50 51°14.944 2°54.377 331.3 12 326 -999
2008-09-18 07:13:00 51°14.972 2°54.35 334.3 11.69 330 -999
2008-09-18 07:13:10 51°15 2°54.324 334.3 11.69 330 -999
2008-09-18 07:13:20 51°15.029 2°54.299 334.3 11.69 330 -999
2008-09-18 07:13:30 51°15.057 2°54.276 334.3 11.69 330 -999
2008-09-18 07:13:40 51°15.087 2°54.252 334.3 11.69 330 -999
2008-09-18 07:13:50 51°15.116 2°54.23 334.3 11.69 330 -999
2008-09-18 07:14:00 51°15.145 2°54.206 339.6 11.8 333 -999
2008-09-18 07:14:10 51°15.174 2°54.181 339.6 11.8 333 -999
2008-09-18 07:14:20 51°15.204 2°54.157 339.6 11.8 333 -999
2008-09-18 07:14:30 51°15.234 2°54.134 339.6 11.8 333 -999
2008-09-18 07:14:40 51°15.263 2°54.11 339.6 11.8 333 -999
2008-09-18 07:14:50 51°15.292 2°54.085 339.6 11.8 333 -999
2008-09-18 07:15:00 51°15.322 2°54.06 338.5 12 332 -999
2008-09-18 07:15:10 51°15.351 2°54.035 338.5 12 332 -999
2008-09-18 07:15:20 51°15.38 2°54.01 338.5 12 332 -999
2008-09-18 07:15:30 51°15.409 2°53.986 338.5 12 332 -999
2008-09-18 07:15:40 51°15.44 2°53.964 338.5 12 332 -999
2008-09-18 07:15:50 51°15.47 2°53.942 338.5 12 332 -999
2008-09-18 07:16:00 51°15.499 2°53.917 341 12 333 -999
2008-09-18 07:16:10 51°15.528 2°53.892 341 12 333 -999
2008-09-18 07:16:20 51°15.558 2°53.866 341 12 333 -999
2008-09-18 07:16:30 51°15.587 2°53.84 341 12 333 -999
2008-09-18 07:16:40 51°15.617 2°53.816 341 12 333 -999
2008-09-18 07:16:50 51°15.647 2°53.791 341 12 333 -999
2008-09-18 07:17:00 51°15.676 2°53.766 339.8 12.09 332 -999
2008-09-18 07:17:10 51°15.706 2°53.741 339.8 12.09 332 -999
2008-09-18 07:17:20 51°15.736 2°53.715 339.8 12.09 332 -999
2008-09-18 07:17:30 51°15.765 2°53.689 339.8 12.09 332 -999
2008-09-18 07:17:40 51°15.795 2°53.664 339.8 12.09 332 -999
2008-09-18 07:17:50 51°15.825 2°53.638 339.8 12.09 332 -999
2008-09-18 07:18:00 51°15.854 2°53.612 338.1 12.19 331 -999
2008-09-18 07:18:10 51°15.884 2°53.585 338.1 12.19 331 -999
2008-09-18 07:18:20 51°15.913 2°53.559 338.1 12.19 331 -999
2008-09-18 07:18:30 51°15.942 2°53.531 338.1 12.19 331 -999
2008-09-18 07:18:40 51°15.971 2°53.503 338.1 12.19 331 -999
2008-09-18 07:18:50 51°16 2°53.474 338.1 12.19 331 -999
2008-09-18 07:19:00 51°16.028 2°53.445 334.6 12.3 327 -999
2008-09-18 07:19:10 51°16.057 2°53.415 334.6 12.3 327 -999
2008-09-18 07:19:20 51°16.085 2°53.386 334.6 12.3 327 -999
2008-09-18 07:19:30 51°16.114 2°53.357 334.6 12.3 327 -999
2008-09-18 07:19:40 51°16.143 2°53.328 334.6 12.3 327 -999
2008-09-18 07:19:50 51°16.172 2°53.3 334.6 12.3 327 -999
2008-09-18 07:20:00 51°16.2 2°53.271 335.6 12.3 328 -999
2008-09-18 07:20:10 51°16.229 2°53.243 335.6 12.3 328 -999
2008-09-18 07:20:20 51°16.258 2°53.214 335.6 12.3 328 -999
2008-09-18 07:20:30 51°16.287 2°53.185 335.6 12.3 328 -999
2008-09-18 07:20:40 51°16.316 2°53.157 335.6 12.3 328 -999
2008-09-18 07:20:50 51°16.345 2°53.129 335.6 12.3 328 -999
2008-09-18 07:21:00 51°16.374 2°53.101 335.8 12.19 329 -999
2008-09-18 07:21:10 51°16.403 2°53.074 335.8 12.19 329 -999
2008-09-18 07:21:20 51°16.432 2°53.048 335.8 12.19 329 -999
2008-09-18 07:21:30 51°16.462 2°53.024 335.8 12.19 329 -999
2008-09-18 07:21:40 51°16.492 2°52.999 335.8 12.19 329 -999
2008-09-18 07:21:50 51°16.522 2°52.974 335.8 12.19 329 -999
2008-09-18 07:22:00 51°16.552 2°52.949 340.3 12.09 333 -999
2008-09-18 07:22:10 51°16.582 2°52.925 340.3 12.09 333 -999
2008-09-18 07:22:20 51°16.612 2°52.901 340.3 12.09 333 -999
2008-09-18 07:22:30 51°16.645 2°52.875 340.3 12.09 333 -999
2008-09-18 07:22:40 51°16.672 2°52.854 340.3 12.09 333 -999
2008-09-18 07:22:50 51°16.702 2°52.83 340.3 12.09 333 -999
2008-09-18 07:23:00 51°16.732 2°52.807 340.1 12.09 334 -999
2008-09-18 07:23:10 51°16.762 2°52.784 340.1 12.09 334 -999
2008-09-18 07:23:20 51°16.792 2°52.761 340.1 12.09 334 -999
2008-09-18 07:23:30 51°16.822 2°52.739 340.1 12.09 334 -999
2008-09-18 07:23:40 51°16.852 2°52.717 340.1 12.09 334 -999
2008-09-18 07:23:50 51°16.882 2°52.698 340.1 12.09 334 -999
2008-09-18 07:24:00 51°16.913 2°52.679 343.8 11.8 338 -999
2008-09-18 07:24:10 51°16.943 2°52.66 343.8 11.8 338 -999
2008-09-18 07:24:20 51°16.974 2°52.641 343.8 11.8 338 -999
2008-09-18 07:24:30 51°17.005 2°52.623 343.8 11.8 338 -999
2008-09-18 07:24:40 51°17.037 2°52.608 343.8 11.8 338 -999
2008-09-18 07:24:50 51°17.068 2°52.594 343.8 11.8 338 -999
2008-09-18 07:25:00 51°17.099 2°52.581 351.1 11.69 345 -999
2008-09-18 07:25:10 51°17.13 2°52.569 351.1 11.69 345 -999
2008-09-18 07:25:20 51°17.165 2°52.557 351.1 11.69 345 -999
2008-09-18 07:25:30 51°17.194 2°52.547 351.1 11.69 345 -999
2008-09-18 07:25:40 51°17.225 2°52.536 351.1 11.69 345 -999
2008-09-18 07:25:50 51°17.26 2°52.524 351.1 11.69 345 -999
2008-09-18 07:26:00 51°17.288 2°52.515 354 11.69 348 -999
2008-09-18 07:26:10 51°17.32 2°52.505 354 11.69 348 -999
2008-09-18 07:26:20 51°17.352 2°52.496 354 11.69 348 -999
2008-09-18 07:26:30 51°17.384 2°52.486 354 11.69 348 -999
2008-09-18 07:26:40 51°17.416 2°52.478 354 11.69 348 -999
2008-09-18 07:26:50 51°17.448 2°52.47 354 11.69 348 -999
2008-09-18 07:27:00 51°17.48 2°52.463 357.3 11.59 352 -999
2008-09-18 07:27:10 51°17.512 2°52.457 357.3 11.59 352 -999
2008-09-18 07:27:20 51°17.544 2°52.452 357.3 11.59 352 -999
2008-09-18 07:27:30 51°17.578 2°52.448 357.3 11.59 352 -999
2008-09-18 07:27:40 51°17.607 2°52.447 357.3 11.59 352 -999
2008-09-18 07:27:50 51°17.639 2°52.445 357.3 11.59 352 -999
2008-09-18 07:28:00 51°17.674 2°52.443 4 11.5 358 -999
2008-09-18 07:28:10 51°17.706 2°52.442 4 11.5 358 -999
2008-09-18 07:28:20 51°17.734 2°52.44 4 11.5 358 -999
2008-09-18 07:28:30 51°17.766 2°52.441 4 11.5 358 -999
2008-09-18 07:28:40 51°17.797 2°52.442 4 11.5 358 -999
2008-09-18 07:28:50 51°17.829 2°52.444 4 11.5 358 -999
2008-09-18 07:29:00 51°17.861 2°52.447 8.5 11.4 3 -999
2008-09-18 07:29:10 51°17.892 2°52.449 8.5 11.4 3 -999
2008-09-18 07:29:20 51°17.924 2°52.451 8.5 11.4 3 -999
2008-09-18 07:29:30 51°17.956 2°52.453 8.5 11.4 3 -999
2008-09-18 07:29:40 51°17.987 2°52.458 8.5 11.4 3 -999
2008-09-18 07:29:50 51°18.018 2°52.465 8.5 11.4 3 -999
2008-09-18 07:30:00 51°18.049 2°52.473 14.4 11.3 10 -999
2008-09-18 07:30:10 51°18.083 2°52.482 14.4 11.3 10 -999
2008-09-18 07:30:20 51°18.114 2°52.491 14.4 11.3 10 -999
2008-09-18 07:30:30 51°18.145 2°52.5 14.4 11.3 10 -999
2008-09-18 07:30:40 51°18.176 2°52.509 14.4 11.3 10 -999
2008-09-18 07:30:50 51°18.207 2°52.517 14.4 11.3 10 -999
2008-09-18 07:31:00 51°18.235 2°52.525 15.8 11.3 9 -999
2008-09-18 07:31:10 51°18.266 2°52.533 15.8 11.3 9 -999
2008-09-18 07:31:20 51°18.3 2°52.542 15.8 11.3 9 -999
2008-09-18 07:31:30 51°18.328 2°52.55 15.8 11.3 9 -999
2008-09-18 07:31:40 51°18.359 2°52.559 15.8 11.3 9 -999
2008-09-18 07:31:50 51°18.39 2°52.567 15.8 11.3 9 -999
2008-09-18 07:32:00 51°18.421 2°52.575 15.9 11.4 10 -999
2008-09-18 07:32:10 51°18.452 2°52.583 15.9 11.4 10 -999
2008-09-18 07:32:20 51°18.483 2°52.591 15.9 11.4 10 -999
2008-09-18 07:32:30 51°18.514 2°52.6 15.9 11.4 10 -999
2008-09-18 07:32:40 51°18.549 2°52.609 15.9 11.4 10 -999
2008-09-18 07:32:50 51°18.577 2°52.617 15.9 11.4 10 -999
2008-09-18 07:33:00 51°18.611 2°52.626 15.9 11.4 9 -999
2008-09-18 07:33:10 51°18.642 2°52.635 15.9 11.4 9 -999
2008-09-18 07:33:20 51°18.67 2°52.642 15.9 11.4 9 -999
2008-09-18 07:33:30 51°18.701 2°52.65 15.9 11.4 9 -999
2008-09-18 07:33:40 51°18.736 2°52.659 15.9 11.4 9 -999
2008-09-18 07:33:50 51°18.767 2°52.667 15.9 11.4 9 -999
2008-09-18 07:34:00 51°18.795 2°52.674 15.5 11.4 9 -999
2008-09-18 07:34:10 51°18.826 2°52.682 15.5 11.4 9 -999
2008-09-18 07:34:20 51°18.861 2°52.691 15.5 11.4 9 -999
2008-09-18 07:34:30 51°18.892 2°52.698 15.5 11.4 9 -999
2008-09-18 07:34:40 51°18.92 2°52.705 15.5 11.4 9 -999
2008-09-18 07:34:50 51°18.952 2°52.713 15.5 11.4 9 -999
2008-09-18 07:35:00 51°18.986 2°52.721 15.4 11.4 8 -999
2008-09-18 07:35:10 51°19.017 2°52.729 15.4 11.4 8 -999
2008-09-18 07:35:20 51°19.045 2°52.739 15.4 11.4 8 -999
2008-09-18 07:35:30 51°19.078 2°52.754 15.4 11.4 8 -999
2008-09-18 07:35:40 51°19.108 2°52.769 15.4 11.4 8 -999
2008-09-18 07:35:50 51°19.134 2°52.784 15.4 11.4 8 -999
2008-09-18 07:36:00 51°19.167 2°52.803 26 11.19 19 -999
2008-09-18 07:36:10 51°19.196 2°52.82 26 11.19 19 -999
2008-09-18 07:36:20 51°19.222 2°52.835 26 11.19 19 -999
2008-09-18 07:36:30 51°19.254 2°52.855 26 11.19 19 -999
2008-09-18 07:36:40 51°19.282 2°52.874 26 11.19 19 -999
2008-09-18 07:36:50 51°19.308 2°52.891 26 11.19 19 -999
2008-09-18 07:37:00 51°19.339 2°52.912 29.6 11.19 23 -999
2008-09-18 07:37:10 51°19.367 2°52.932 29.6 11.19 23 -999
2008-09-18 07:37:20 51°19.393 2°52.949 29.6 11.19 23 -999
2008-09-18 07:37:30 51°19.422 2°52.966 29.6 11.19 23 -999
2008-09-18 07:37:40 51°19.455 2°52.983 29.6 11.19 23 -999
2008-09-18 07:37:50 51°19.484 2°53 29.6 11.19 23 -999
2008-09-18 07:38:00 51°19.51 2°53.017 26.5 11.19 23 -999
2008-09-18 07:38:10 51°19.542 2°53.036 26.5 11.19 23 -999
2008-09-18 07:38:20 51°19.571 2°53.051 26.5 11.19 23 -999
2008-09-18 07:38:30 51°19.601 2°53.065 26.5 11.19 23 -999
2008-09-18 07:38:40 51°19.629 2°53.08 26.5 11.19 23 -999
2008-09-18 07:38:50 51°19.655 2°53.095 26.5 11.19 23 -999
2008-09-18 07:39:00 51°19.687 2°53.114 28.5 10.9 21 -999
2008-09-18 07:39:10 51°19.715 2°53.131 28.5 10.9 21 -999
2008-09-18 07:39:20 51°19.741 2°53.146 28.5 10.9 21 -999
2008-09-18 07:39:30 51°19.773 2°53.164 28.5 10.9 21 -999
2008-09-18 07:39:40 51°19.801 2°53.179 28.5 10.9 21 -999
2008-09-18 07:39:50 51°19.827 2°53.192 28.5 10.9 21 -999
2008-09-18 07:40:00 51°19.856 2°53.205 25.5 10.9 16 -999
2008-09-18 07:40:10 51°19.889 2°53.219 25.5 10.9 16 -999
2008-09-18 07:40:20 51°19.918 2°53.232 25.5 10.9 16 -999
2008-09-18 07:40:30 51°19.944 2°53.243 25.5 10.9 16 -999
2008-09-18 07:40:40 51°19.977 2°53.256 25.5 10.9 16 -999
2008-09-18 07:40:50 51°20.007 2°53.267 25.5 10.9 16 -999
2008-09-18 07:41:00 51°20.037 2°53.278 21.8 11.09 13 -999
2008-09-18 07:41:10 51°20.067 2°53.289 21.8 11.09 13 -999
2008-09-18 07:41:20 51°20.097 2°53.3 21.8 11.09 13 -999
2008-09-18 07:41:30 51°20.127 2°53.31 21.8 11.09 13 -999
2008-09-18 07:41:40 51°20.157 2°53.321 21.8 11.09 13 -999
2008-09-18 07:41:50 51°20.187 2°53.333 21.8 11.09 13 -999
2008-09-18 07:42:00 51°20.217 2°53.344 22.5 11.19 13 -999
2008-09-18 07:42:10 51°20.248 2°53.355 22.5 11.19 13 -999
2008-09-18 07:42:20 51°20.275 2°53.365 22.5 11.19 13 -999
2008-09-18 07:42:30 51°20.308 2°53.377 22.5 11.19 13 -999
2008-09-18 07:42:40 51°20.338 2°53.389 22.5 11.19 13 -999
2008-09-18 07:42:50 51°20.368 2°53.4 22.5 11.19 13 -999
2008-09-18 07:43:00 51°20.398 2°53.413 23.1 11.09 16 -999
2008-09-18 07:43:10 51°20.427 2°53.426 23.1 11.09 16 -999
2008-09-18 07:43:20 51°20.457 2°53.441 23.1 11.09 16 -999
2008-09-18 07:43:30 51°20.486 2°53.454 23.1 11.09 16 -999
2008-09-18 07:43:40 51°20.512 2°53.468 23.1 11.09 16 -999
2008-09-18 07:43:50 51°20.544 2°53.484 23.1 11.09 16 -999
2008-09-18 07:44:00 51°20.573 2°53.498 25.8 11 17 -999
2008-09-18 07:44:10 51°20.602 2°53.512 25.8 11 17 -999
2008-09-18 07:44:20 51°20.628 2°53.525 25.8 11 17 -999
2008-09-18 07:44:30 51°20.66 2°53.541 25.8 11 17 -999
2008-09-18 07:44:40 51°20.689 2°53.555 25.8 11 17 -999
2008-09-18 07:44:50 51°20.718 2°53.568 25.8 11 17 -999
2008-09-18 07:45:00 51°20.745 2°53.58 23.1 11 14 -999
2008-09-18 07:45:10 51°20.778 2°53.592 23.1 11 14 -999
2008-09-18 07:45:20 51°20.808 2°53.603 23.1 11 14 -999
2008-09-18 07:45:30 51°20.838 2°53.615 23.1 11 14 -999
2008-09-18 07:45:40 51°20.867 2°53.627 23.1 11 14 -999
2008-09-18 07:45:50 51°20.897 2°53.638 23.1 11 14 -999
2008-09-18 07:46:00 51°20.927 2°53.651 23.3 11 15 -999
2008-09-18 07:46:10 51°20.953 2°53.664 23.3 11 15 -999
2008-09-18 07:46:20 51°20.985 2°53.68 23.3 11 15 -999
2008-09-18 07:46:30 51°21.015 2°53.694 23.3 11 15 -999
2008-09-18 07:46:40 51°21.044 2°53.708 23.3 11 15 -999
2008-09-18 07:46:50 51°21.071 2°53.719 23.3 11 15 -999
2008-09-18 07:47:00 51°21.104 2°53.732 22.5 11.19 14 -999
2008-09-18 07:47:10 51°21.134 2°53.744 22.5 11.19 14 -999
2008-09-18 07:47:20 51°21.164 2°53.757 22.5 11.19 14 -999
2008-09-18 07:47:30 51°21.194 2°53.769 22.5 11.19 14 -999
2008-09-18 07:47:40 51°21.225 2°53.781 22.5 11.19 14 -999
2008-09-18 07:47:50 51°21.255 2°53.794 22.5 11.19 14 -999
2008-09-18 07:48:00 51°21.285 2°53.806 22.3 11.19 15 -999
2008-09-18 07:48:10 51°21.315 2°53.82 22.3 11.19 15 -999
2008-09-18 07:48:20 51°21.344 2°53.835 22.3 11.19 15 -999
2008-09-18 07:48:30 51°21.374 2°53.85 22.3 11.19 15 -999
2008-09-18 07:48:40 51°21.403 2°53.865 22.3 11.19 15 -999
2008-09-18 07:48:50 51°21.433 2°53.881 22.3 11.19 15 -999
2008-09-18 07:49:00 51°21.462 2°53.896 25.3 11.19 18 -999
2008-09-18 07:49:10 51°21.492 2°53.911 25.3 11.19 18 -999
2008-09-18 07:49:20 51°21.522 2°53.927 25.3 11.19 18 -999
2008-09-18 07:49:30 51°21.551 2°53.941 25.3 11.19 18 -999
2008-09-18 07:49:40 51°21.581 2°53.955 25.3 11.19 18 -999
2008-09-18 07:49:50 51°21.612 2°53.967 25.3 11.19 18 -999
2008-09-18 07:50:00 51°21.642 2°53.979 21.8 11.3 15 -999
2008-09-18 07:50:10 51°21.672 2°53.992 21.8 11.3 15 -999
2008-09-18 07:50:20 51°21.703 2°54.005 21.8 11.3 15 -999
2008-09-18 07:50:30 51°21.732 2°54.02 21.8 11.3 15 -999
2008-09-18 07:50:40 51°21.762 2°54.036 21.8 11.3 15 -999
2008-09-18 07:50:50 51°21.791 2°54.052 21.8 11.3 15 -999
2008-09-18 07:51:00 51°21.821 2°54.069 26 11.19 19 -999
2008-09-18 07:51:10 51°21.85 2°54.085 26 11.19 19 -999
2008-09-18 07:51:20 51°21.879 2°54.101 26 11.19 19 -999
2008-09-18 07:51:30 51°21.909 2°54.118 26 11.19 19 -999
2008-09-18 07:51:40 51°21.938 2°54.134 26 11.19 19 -999
2008-09-18 07:51:50 51°21.967 2°54.151 26 11.19 19 -999
2008-09-18 07:52:00 51°21.997 2°54.167 26.6 11.19 20 -999
2008-09-18 07:52:10 51°22.026 2°54.184 26.6 11.19 20 -999
2008-09-18 07:52:20 51°22.056 2°54.201 26.6 11.19 20 -999
2008-09-18 07:52:30 51°22.085 2°54.218 26.6 11.19 20 -999
2008-09-18 07:52:40 51°22.115 2°54.234 26.6 11.19 20 -999
2008-09-18 07:52:50 51°22.144 2°54.251 26.6 11.19 20 -999
2008-09-18 07:53:00 51°22.173 2°54.268 26.8 11.19 20 -999
2008-09-18 07:53:10 51°22.202 2°54.285 26.8 11.19 20 -999
2008-09-18 07:53:20 51°22.232 2°54.302 26.8 11.19 20 -999
2008-09-18 07:53:30 51°22.261 2°54.32 26.8 11.19 20 -999
2008-09-18 07:53:40 51°22.29 2°54.337 26.8 11.19 20 -999
2008-09-18 07:53:50 51°22.319 2°54.354 26.8 11.19 20 -999
2008-09-18 07:54:00 51°22.348 2°54.372 27.1 11.19 22 -999
2008-09-18 07:54:10 51°22.377 2°54.39 27.1 11.19 22 -999
2008-09-18 07:54:20 51°22.406 2°54.409 27.1 11.19 22 -999
2008-09-18 07:54:30 51°22.434 2°54.428 27.1 11.19 22 -999
2008-09-18 07:54:40 51°22.463 2°54.448 27.1 11.19 22 -999
2008-09-18 07:54:50 51°22.492 2°54.466 27.1 11.19 22 -999
2008-09-18 07:55:00 51°22.521 2°54.483 27.8 11.19 19 -999
2008-09-18 07:55:10 51°22.55 2°54.499 27.8 11.19 19 -999
2008-09-18 07:55:20 51°22.58 2°54.515 27.8 11.19 19 -999
2008-09-18 07:55:30 51°22.609 2°54.532 27.8 11.19 19 -999
2008-09-18 07:55:40 51°22.638 2°54.549 27.8 11.19 19 -999
2008-09-18 07:55:50 51°22.667 2°54.566 27.8 11.19 19 -999
2008-09-18 07:56:00 51°22.696 2°54.584 26.8 11.19 21 -999
2008-09-18 07:56:10 51°22.725 2°54.601 26.8 11.19 21 -999
2008-09-18 07:56:20 51°22.754 2°54.618 26.8 11.19 21 -999
2008-09-18 07:56:30 51°22.783 2°54.637 26.8 11.19 21 -999
2008-09-18 07:56:40 51°22.812 2°54.655 26.8 11.19 21 -999
2008-09-18 07:56:50 51°22.841 2°54.673 26.8 11.19 21 -999
2008-09-18 07:57:00 51°22.87 2°54.69 27 11.19 20 -999
2008-09-18 07:57:10 51°22.899 2°54.707 27 11.19 20 -999
2008-09-18 07:57:20 51°22.928 2°54.724 27 11.19 20 -999
2008-09-18 07:57:30 51°22.957 2°54.741 27 11.19 20 -999
2008-09-18 07:57:40 51°22.986 2°54.758 27 11.19 20 -999
2008-09-18 07:57:50 51°23.014 2°54.776 27 11.19 20 -999
2008-09-18 07:58:00 51°23.043 2°54.795 28.5 11 22 -999
2008-09-18 07:58:10 51°23.072 2°54.812 28.5 11 22 -999
2008-09-18 07:58:20 51°23.101 2°54.829 28.5 11 22 -999
2008-09-18 07:58:30 51°23.13 2°54.846 28.5 11 22 -999
2008-09-18 07:58:40 51°23.159 2°54.863 28.5 11 22 -999
2008-09-18 07:58:50 51°23.188 2°54.879 28.5 11 22 -999
2008-09-18 07:59:00 51°23.217 2°54.896 25.8 11.09 20 -999
2008-09-18 07:59:10 51°23.245 2°54.913 25.8 11.09 20 -999
2008-09-18 07:59:20 51°23.274 2°54.93 25.8 11.09 20 -999
2008-09-18 07:59:30 51°23.303 2°54.948 25.8 11.09 20 -999
2008-09-18 07:59:40 51°23.331 2°54.966 25.8 11.09 20 -999
2008-09-18 07:59:50 51°23.359 2°54.985 25.8 11.09 20 -999
2008-09-18 08:00:00 51°23.387 2°55.005 29.1 11 24 -999
2008-09-18 08:00:10 51°23.415 2°55.025 29.1 11 24 -999
2008-09-18 08:00:20 51°23.443 2°55.046 29.1 11 24 -999
2008-09-18 08:00:30 51°23.471 2°55.067 29.1 11 24 -999
2008-09-18 08:00:40 51°23.499 2°55.087 29.1 11 24 -999
2008-09-18 08:00:50 51°23.527 2°55.107 29.1 11 24 -999
2008-09-18 08:01:00 51°23.555 2°55.127 29.3 11.19 24 -999
2008-09-18 08:01:10 51°23.584 2°55.146 29.3 11.19 24 -999
2008-09-18 08:01:20 51°23.613 2°55.164 29.3 11.19 24 -999
2008-09-18 08:01:30 51°23.642 2°55.182 29.3 11.19 24 -999
2008-09-18 08:01:40 51°23.671 2°55.2 29.3 11.19 24 -999
2008-09-18 08:01:50 51°23.699 2°55.218 29.3 11.19 24 -999
2008-09-18 08:02:00 51°23.728 2°55.236 26.8 11.19 21 -999
2008-09-18 08:02:10 51°23.757 2°55.254 26.8 11.19 21 -999
2008-09-18 08:02:20 51°23.786 2°55.272 26.8 11.19 21 -999
2008-09-18 08:02:30 51°23.815 2°55.29 26.8 11.19 21 -999
2008-09-18 08:02:40 51°23.843 2°55.307 26.8 11.19 21 -999
2008-09-18 08:02:50 51°23.871 2°55.324 26.8 11.19 21 -999
2008-09-18 08:03:00 51°23.9 2°55.342 26 11 21 -999
2008-09-18 08:03:10 51°23.928 2°55.359 26 11 21 -999
2008-09-18 08:03:20 51°23.956 2°55.377 26 11 21 -999
2008-09-18 08:03:30 51°23.985 2°55.394 26 11 21 -999
2008-09-18 08:03:40 51°24.013 2°55.412 26 11 21 -999
2008-09-18 08:03:50 51°24.042 2°55.429 26 11 21 -999
2008-09-18 08:04:00 51°24.07 2°55.447 27 11 21 -999
2008-09-18 08:04:10 51°24.098 2°55.465 27 11 21 -999
2008-09-18 08:04:20 51°24.126 2°55.485 27 11 21 -999
2008-09-18 08:04:30 51°24.154 2°55.504 27 11 21 -999
2008-09-18 08:04:40 51°24.183 2°55.522 27 11 21 -999
2008-09-18 08:04:50 51°24.211 2°55.54 27 11 21 -999
2008-09-18 08:05:00 51°24.24 2°55.558 26.5 11.09 21 -999
2008-09-18 08:05:10 51°24.268 2°55.576 26.5 11.09 21 -999
2008-09-18 08:05:20 51°24.297 2°55.593 26.5 11.09 21 -999
2008-09-18 08:05:30 51°24.326 2°55.611 26.5 11.09 21 -999
2008-09-18 08:05:40 51°24.354 2°55.629 26.5 11.09 21 -999
2008-09-18 08:05:50 51°24.383 2°55.647 26.5 11.09 21 -999
2008-09-18 08:06:00 51°24.412 2°55.665 26.6 11.09 21 -999
2008-09-18 08:06:10 51°24.441 2°55.683 26.6 11.09 21 -999
2008-09-18 08:06:20 51°24.47 2°55.7 26.6 11.09 21 -999
2008-09-18 08:06:30 51°24.498 2°55.718 26.6 11.09 21 -999
2008-09-18 08:06:40 51°24.527 2°55.737 26.6 11.09 21 -999
2008-09-18 08:06:50 51°24.556 2°55.755 26.6 11.09 21 -999
2008-09-18 08:07:00 51°24.585 2°55.774 27.3 11.09 22 -999
2008-09-18 08:07:10 51°24.613 2°55.793 27.3 11.09 22 -999
2008-09-18 08:07:20 51°24.641 2°55.812 27.3 11.09 22 -999
2008-09-18 08:07:30 51°24.669 2°55.832 27.3 11.09 22 -999
2008-09-18 08:07:40 51°24.698 2°55.85 27.3 11.09 22 -999
2008-09-18 08:07:50 51°24.726 2°55.869 27.3 11.09 22 -999
2008-09-18 08:08:00 51°24.755 2°55.889 29 11.09 24 -999
2008-09-18 08:08:10 51°24.783 2°55.909 29 11.09 24 -999
2008-09-18 08:08:20 51°24.81 2°55.929 29 11.09 24 -999
2008-09-18 08:08:30 51°24.839 2°55.949 29 11.09 24 -999
2008-09-18 08:08:40 51°24.867 2°55.968 29 11.09 24 -999
2008-09-18 08:08:50 51°24.895 2°55.989 29 11.09 24 -999
2008-09-18 08:09:00 51°24.924 2°56.008 29.6 11.19 23 -999
2008-09-18 08:09:10 51°24.952 2°56.028 29.6 11.19 23 -999
2008-09-18 08:09:20 51°24.981 2°56.046 29.6 11.19 23 -999
2008-09-18 08:09:30 51°25.01 2°56.062 29.6 11.19 23 -999
2008-09-18 08:09:40 51°25.038 2°56.079 29.6 11.19 23 -999
2008-09-18 08:09:50 51°25.067 2°56.096 29.6 11.19 23 -999
2008-09-18 08:10:00 51°25.095 2°56.112 26.3 10.9 21 -999
2008-09-18 08:10:10 51°25.124 2°56.129 26.3 10.9 21 -999
2008-09-18 08:10:20 51°25.152 2°56.145 26.3 10.9 21 -999
2008-09-18 08:10:30 51°25.18 2°56.164 26.3 10.9 21 -999
2008-09-18 08:10:40 51°25.207 2°56.183 26.3 10.9 21 -999
2008-09-18 08:10:50 51°25.235 2°56.202 26.3 10.9 21 -999
2008-09-18 08:11:00 51°25.262 2°56.222 29.1 10.8 23 -999
2008-09-18 08:11:10 51°25.29 2°56.241 29.1 10.8 23 -999
2008-09-18 08:11:20 51°25.317 2°56.258 29.1 10.8 23 -999
2008-09-18 08:11:30 51°25.345 2°56.277 29.1 10.8 23 -999
2008-09-18 08:11:40 51°25.373 2°56.295 29.1 10.8 23 -999
2008-09-18 08:11:50 51°25.4 2°56.313 29.1 10.8 23 -999
2008-09-18 08:12:00 51°25.428 2°56.332 29 10.69 23 -999
2008-09-18 08:12:10 51°25.455 2°56.351 29 10.69 23 -999
2008-09-18 08:12:20 51°25.482 2°56.371 29 10.69 23 -999
2008-09-18 08:12:30 51°25.509 2°56.388 29 10.69 23 -999
2008-09-18 08:12:40 51°25.537 2°56.404 29 10.69 23 -999
2008-09-18 08:12:50 51°25.565 2°56.42 29 10.69 23 -999
2008-09-18 08:13:00 51°25.593 2°56.435 25.1 10.69 19 -999
2008-09-18 08:13:10 51°25.621 2°56.451 25.1 10.69 19 -999
2008-09-18 08:13:20 51°25.649 2°56.467 25.1 10.69 19 -999
2008-09-18 08:13:30 51°25.677 2°56.484 25.1 10.69 19 -999
2008-09-18 08:13:40 51°25.704 2°56.502 25.1 10.69 19 -999
2008-09-18 08:13:50 51°25.731 2°56.521 25.1 10.69 19 -999
2008-09-18 08:14:00 51°25.758 2°56.541 29.6 10.59 25 -999
2008-09-18 08:14:10 51°25.784 2°56.561 29.6 10.59 25 -999
2008-09-18 08:14:20 51°25.811 2°56.581 29.6 10.59 25 -999
2008-09-18 08:14:30 51°25.837 2°56.601 29.6 10.59 25 -999
2008-09-18 08:14:40 51°25.864 2°56.622 29.6 10.59 25 -999
2008-09-18 08:14:50 51°25.89 2°56.644 29.6 10.59 25 -999
2008-09-18 08:15:00 51°25.917 2°56.663 30.1 10.69 23 -999
2008-09-18 08:15:10 51°25.945 2°56.679 30.1 10.69 23 -999
2008-09-18 08:15:20 51°25.973 2°56.695 30.1 10.69 23 -999
2008-09-18 08:15:30 51°26.001 2°56.711 30.1 10.69 23 -999
2008-09-18 08:15:40 51°26.029 2°56.728 30.1 10.69 23 -999
2008-09-18 08:15:50 51°26.057 2°56.744 30.1 10.69 23 -999
2008-09-18 08:16:00 51°26.085 2°56.762 25.5 10.8 22 -999
2008-09-18 08:16:10 51°26.112 2°56.779 25.5 10.8 22 -999
2008-09-18 08:16:20 51°26.14 2°56.797 25.5 10.8 22 -999
2008-09-18 08:16:30 51°26.168 2°56.815 25.5 10.8 22 -999
2008-09-18 08:16:40 51°26.196 2°56.833 25.5 10.8 22 -999
2008-09-18 08:16:50 51°26.223 2°56.85 25.5 10.8 22 -999
2008-09-18 08:17:00 51°26.251 2°56.867 26.1 10.8 21 -999
2008-09-18 08:17:10 51°26.279 2°56.883 26.1 10.8 21 -999
2008-09-18 08:17:20 51°26.307 2°56.899 26.1 10.8 21 -999
2008-09-18 08:17:30 51°26.336 2°56.913 26.1 10.8 21 -999
2008-09-18 08:17:40 51°26.364 2°56.928 26.1 10.8 21 -999
2008-09-18 08:17:50 51°26.392 2°56.942 26.1 10.8 21 -999
2008-09-18 08:18:00 51°26.421 2°56.957 23.3 10.8 19 -999
2008-09-18 08:18:10 51°26.449 2°56.973 23.3 10.8 19 -999
2008-09-18 08:18:20 51°26.477 2°56.988 23.3 10.8 19 -999
2008-09-18 08:18:30 51°26.505 2°57.003 23.3 10.8 19 -999
2008-09-18 08:18:40 51°26.534 2°57.019 23.3 10.8 19 -999
2008-09-18 08:18:50 51°26.562 2°57.034 23.3 10.8 19 -999
2008-09-18 08:19:00 51°26.59 2°57.051 24.6 10.8 20 -999
2008-09-18 08:19:10 51°26.618 2°57.068 24.6 10.8 20 -999
2008-09-18 08:19:20 51°26.646 2°57.086 24.6 10.8 20 -999
2008-09-18 08:19:30 51°26.673 2°57.104 24.6 10.8 20 -999
2008-09-18 08:19:40 51°26.701 2°57.121 24.6 10.8 20 -999
2008-09-18 08:19:50 51°26.729 2°57.139 24.6 10.8 20 -999
2008-09-18 08:20:00 51°26.756 2°57.156 27.1 10.69 21 -999
2008-09-18 08:20:10 51°26.784 2°57.174 27.1 10.69 21 -999
2008-09-18 08:20:20 51°26.811 2°57.192 27.1 10.69 21 -999
2008-09-18 08:20:30 51°26.839 2°57.21 27.1 10.69 21 -999
2008-09-18 08:20:40 51°26.867 2°57.227 27.1 10.69 21 -999
2008-09-18 08:20:50 51°26.895 2°57.244 27.1 10.69 21 -999
2008-09-18 08:21:00 51°26.922 2°57.26 26.5 10.8 20 -999
2008-09-18 08:21:10 51°26.951 2°57.276 26.5 10.8 20 -999
2008-09-18 08:21:20 51°26.979 2°57.291 26.5 10.8 20 -999
2008-09-18 08:21:30 51°27.008 2°57.306 26.5 10.8 20 -999
2008-09-18 08:21:40 51°27.036 2°57.32 26.5 10.8 20 -999
2008-09-18 08:21:50 51°27.064 2°57.337 26.5 10.8 20 -999
2008-09-18 08:22:00 51°27.092 2°57.354 26 10.69 22 -999
2008-09-18 08:22:10 51°27.119 2°57.373 26 10.69 22 -999
2008-09-18 08:22:20 51°27.146 2°57.392 26 10.69 22 -999
2008-09-18 08:22:30 51°27.173 2°57.413 26 10.69 22 -999
2008-09-18 08:22:40 51°27.2 2°57.434 26 10.69 22 -999
2008-09-18 08:22:50 51°27.226 2°57.455 26 10.69 22 -999
2008-09-18 08:23:00 51°27.252 2°57.477 31.3 10.59 27 -999
2008-09-18 08:23:10 51°27.279 2°57.498 31.3 10.59 27 -999
2008-09-18 08:23:20 51°27.305 2°57.519 31.3 10.59 27 -999
2008-09-18 08:23:30 51°27.331 2°57.541 31.3 10.59 27 -999
2008-09-18 08:23:40 51°27.357 2°57.563 31.3 10.59 27 -999
2008-09-18 08:23:50 51°27.384 2°57.584 31.3 10.59 27 -999
2008-09-18 08:24:00 51°27.41 2°57.605 31.3 10.59 27 -999
2008-09-18 08:24:10 51°27.436 2°57.626 31.3 10.59 27 -999
2008-09-18 08:24:20 51°27.462 2°57.648 31.3 10.59 27 -999
2008-09-18 08:24:30 51°27.489 2°57.67 31.3 10.59 27 -999
2008-09-18 08:24:40 51°27.515 2°57.691 31.3 10.59 27 -999
2008-09-18 08:24:50 51°27.541 2°57.712 31.3 10.59 27 -999
2008-09-18 08:25:00 51°27.567 2°57.734 31.5 10.5 27 -999
2008-09-18 08:25:10 51°27.593 2°57.754 31.5 10.5 27 -999
2008-09-18 08:25:20 51°27.616 2°57.773 31.5 10.5 27 -999
2008-09-18 08:25:30 51°27.645 2°57.796 31.5 10.5 27 -999
2008-09-18 08:25:40 51°27.671 2°57.817 31.5 10.5 27 -999
2008-09-18 08:25:50 51°27.697 2°57.838 31.5 10.5 27 -999
2008-09-18 08:26:00 51°27.722 2°57.86 32 10.5 27 -999
2008-09-18 08:26:10 51°27.748 2°57.882 32 10.5 27 -999
2008-09-18 08:26:20 51°27.773 2°57.905 32 10.5 27 -999
2008-09-18 08:26:30 51°27.799 2°57.927 32 10.5 27 -999
2008-09-18 08:26:40 51°27.824 2°57.95 32 10.5 27 -999
2008-09-18 08:26:50 51°27.849 2°57.973 32 10.5 27 -999
2008-09-18 08:27:00 51°27.874 2°57.997 34.7 10.5 30 -999
2008-09-18 08:27:10 51°27.897 2°58.018 34.7 10.5 30 -999
2008-09-18 08:27:20 51°27.925 2°58.044 34.7 10.5 30 -999
2008-09-18 08:27:30 51°27.95 2°58.067 34.7 10.5 30 -999
2008-09-18 08:27:40 51°27.973 2°58.088 34.7 10.5 30 -999
2008-09-18 08:27:50 51°28.001 2°58.112 34.7 10.5 30 -999
2008-09-18 08:28:00 51°28.025 2°58.131 31.8 10.5 28 -999
2008-09-18 08:28:10 51°28.054 2°58.154 31.8 10.5 28 -999
2008-09-18 08:28:20 51°28.08 2°58.174 31.8 10.5 28 -999
2008-09-18 08:28:30 51°28.106 2°58.195 31.8 10.5 28 -999
2008-09-18 08:28:40 51°28.132 2°58.215 31.8 10.5 28 -999
2008-09-18 08:28:50 51°28.158 2°58.236 31.8 10.5 28 -999
2008-09-18 08:29:00 51°28.184 2°58.257 30.8 10.5 26 -999
2008-09-18 08:29:10 51°28.21 2°58.277 30.8 10.5 26 -999
2008-09-18 08:29:20 51°28.236 2°58.299 30.8 10.5 26 -999
2008-09-18 08:29:30 51°28.262 2°58.32 30.8 10.5 26 -999
2008-09-18 08:29:40 51°28.286 2°58.338 30.8 10.5 26 -999
2008-09-18 08:29:50 51°28.314 2°58.361 30.8 10.5 26 -999
2008-09-18 08:30:00 51°28.34 2°58.382 31.6 10.5 27 -999
2008-09-18 08:30:10 51°28.366 2°58.404 31.6 10.5 27 -999
2008-09-18 08:30:20 51°28.392 2°58.425 31.6 10.5 27 -999
2008-09-18 08:30:30 51°28.417 2°58.446 31.6 10.5 27 -999
2008-09-18 08:30:40 51°28.443 2°58.467 31.6 10.5 27 -999
2008-09-18 08:30:50 51°28.469 2°58.488 31.6 10.5 27 -999
2008-09-18 08:31:00 51°28.496 2°58.508 31.1 10.59 26 -999
2008-09-18 08:31:10 51°28.522 2°58.529 31.1 10.59 26 -999
2008-09-18 08:31:20 51°28.548 2°58.55 31.1 10.59 26 -999
2008-09-18 08:31:30 51°28.574 2°58.571 31.1 10.59 26 -999
2008-09-18 08:31:40 51°28.6 2°58.593 31.1 10.59 26 -999
2008-09-18 08:31:50 51°28.626 2°58.614 31.1 10.59 26 -999
2008-09-18 08:32:00 51°28.653 2°58.635 31.8 10.59 27 -999
2008-09-18 08:32:10 51°28.679 2°58.657 31.8 10.59 27 -999
2008-09-18 08:32:20 51°28.705 2°58.678 31.8 10.59 27 -999
2008-09-18 08:32:30 51°28.732 2°58.7 31.8 10.59 27 -999
2008-09-18 08:32:40 51°28.758 2°58.722 31.8 10.59 27 -999
2008-09-18 08:32:50 51°28.784 2°58.743 31.8 10.59 27 -999
2008-09-18 08:33:00 51°28.81 2°58.765 32.2 10.5 27 -999
2008-09-18 08:33:10 51°28.836 2°58.787 32.2 10.5 27 -999
2008-09-18 08:33:20 51°28.862 2°58.808 32.2 10.5 27 -999
2008-09-18 08:33:30 51°28.888 2°58.831 32.2 10.5 27 -999
2008-09-18 08:33:40 51°28.912 2°58.857 32.2 10.5 27 -999
2008-09-18 08:33:50 51°28.934 2°58.886 32.2 10.5 27 -999
2008-09-18 08:34:00 51°28.954 2°58.919 45.2 10.3 46 -999
2008-09-18 08:34:10 51°28.973 2°58.953 45.2 10.3 46 -999
2008-09-18 08:34:20 51°28.991 2°58.989 45.2 10.3 46 -999
2008-09-18 08:34:30 51°29.009 2°59.025 45.2 10.3 46 -999
2008-09-18 08:34:40 51°29.026 2°59.062 45.2 10.3 46 -999
2008-09-18 08:34:50 51°29.043 2°59.099 45.2 10.3 46 -999
2008-09-18 08:35:00 51°29.059 2°59.138 56.1 10.3 57 -999
2008-09-18 08:35:10 51°29.074 2°59.177 56.1 10.3 57 -999
2008-09-18 08:35:20 51°29.089 2°59.217 56.1 10.3 57 -999
2008-09-18 08:35:30 51°29.103 2°59.256 56.1 10.3 57 -999
2008-09-18 08:35:40 51°29.118 2°59.296 56.1 10.3 57 -999
2008-09-18 08:35:50 51°29.133 2°59.336 56.1 10.3 57 -999
2008-09-18 08:36:00 51°29.147 2°59.376 60 10.3 61 -999
2008-09-18 08:36:10 51°29.16 2°59.416 60 10.3 61 -999
2008-09-18 08:36:20 51°29.173 2°59.457 60 10.3 61 -999
2008-09-18 08:36:30 51°29.187 2°59.497 60 10.3 61 -999
2008-09-18 08:36:40 51°29.202 2°59.537 60 10.3 61 -999
2008-09-18 08:36:50 51°29.216 2°59.577 60 10.3 61 -999
2008-09-18 08:37:00 51°29.229 2°59.617 61.1 10.3 62 -999
2008-09-18 08:37:10 51°29.244 2°59.656 61.1 10.3 62 -999
2008-09-18 08:37:20 51°29.259 2°59.695 61.1 10.3 62 -999
2008-09-18 08:37:30 51°29.275 2°59.733 61.1 10.3 62 -999
2008-09-18 08:37:40 51°29.292 2°59.769 61.1 10.3 62 -999
2008-09-18 08:37:50 51°29.31 2°59.805 61.1 10.3 62 -999
2008-09-18 08:38:00 51°29.329 2°59.839 51.1 10.19 48 -999
2008-09-18 08:38:10 51°29.348 2°59.873 51.1 10.19 48 -999
2008-09-18 08:38:20 51°29.367 2°59.907 51.1 10.19 48 -999
2008-09-18 08:38:30 51°29.385 2°59.942 51.1 10.19 48 -999
2008-09-18 08:38:40 51°29.403 2°59.978 51.1 10.19 48 -999
2008-09-18 08:38:50 51°29.421 3°0.013 51.1 10.19 48 -999
2008-09-18 08:39:00 51°29.439 3°0.049 52.2 10.3 52 -999
2008-09-18 08:39:10 51°29.457 3°0.084 52.2 10.3 52 -999
2008-09-18 08:39:20 51°29.475 3°0.119 52.2 10.3 52 -999
2008-09-18 08:39:30 51°29.494 3°0.153 52.2 10.3 52 -999
2008-09-18 08:39:40 51°29.514 3°0.187 52.2 10.3 52 -999
2008-09-18 08:39:50 51°29.533 3°0.22 52.2 10.3 52 -999
2008-09-18 08:40:00 51°29.553 3°0.253 48.1 10.3 47 -999
2008-09-18 08:40:10 51°29.572 3°0.288 48.1 10.3 47 -999
2008-09-18 08:40:20 51°29.591 3°0.322 48.1 10.3 47 -999
2008-09-18 08:40:30 51°29.61 3°0.356 48.1 10.3 47 -999
2008-09-18 08:40:40 51°29.629 3°0.39 48.1 10.3 47 -999
2008-09-18 08:40:50 51°29.648 3°0.423 48.1 10.3 47 -999
2008-09-18 08:41:00 51°29.668 3°0.456 48.3 10.19 47 -999
2008-09-18 08:41:10 51°29.687 3°0.489 48.3 10.19 47 -999
2008-09-18 08:41:20 51°29.706 3°0.523 48.3 10.19 47 -999
2008-09-18 08:41:30 51°29.725 3°0.557 48.3 10.19 47 -999
2008-09-18 08:41:40 51°29.744 3°0.591 48.3 10.19 47 -999
2008-09-18 08:41:50 51°29.763 3°0.624 48.3 10.19 47 -999
2008-09-18 08:42:00 51°29.784 3°0.655 47 10.19 45 -999
2008-09-18 08:42:10 51°29.804 3°0.687 47 10.19 45 -999
2008-09-18 08:42:20 51°29.824 3°0.718 47 10.19 45 -999
2008-09-18 08:42:30 51°29.844 3°0.75 47 10.19 45 -999
2008-09-18 08:42:40 51°29.864 3°0.782 47 10.19 45 -999
2008-09-18 08:42:50 51°29.883 3°0.816 47 10.19 45 -999
2008-09-18 08:43:00 51°29.904 3°0.847 47.3 10.19 45 -999
2008-09-18 08:43:10 51°29.925 3°0.878 47.3 10.19 45 -999
2008-09-18 08:43:20 51°29.946 3°0.907 47.3 10.19 45 -999
2008-09-18 08:43:30 51°29.968 3°0.936 47.3 10.19 45 -999
2008-09-18 08:43:40 51°29.99 3°0.964 47.3 10.19 45 -999
2008-09-18 08:43:50 51°30.012 3°0.993 47.3 10.19 45 -999
2008-09-18 08:44:00 51°30.034 3°1.022 42.2 10.3 39 -999
2008-09-18 08:44:10 51°30.056 3°1.051 42.2 10.3 39 -999
2008-09-18 08:44:20 51°30.077 3°1.082 42.2 10.3 39 -999
2008-09-18 08:44:30 51°30.099 3°1.111 42.2 10.3 39 -999
2008-09-18 08:44:40 51°30.121 3°1.14 42.2 10.3 39 -999
2008-09-18 08:44:50 51°30.144 3°1.165 42.2 10.3 39 -999
2008-09-18 08:45:00 51°30.169 3°1.187 35.3 10.3 29 -999
2008-09-18 08:45:10 51°30.195 3°1.207 35.3 10.3 29 -999
2008-09-18 08:45:20 51°30.221 3°1.227 35.3 10.3 29 -999
2008-09-18 08:45:30 51°30.247 3°1.245 35.3 10.3 29 -999
2008-09-18 08:45:40 51°30.274 3°1.263 35.3 10.3 29 -999
2008-09-18 08:45:50 51°30.3 3°1.282 35.3 10.3 29 -999
2008-09-18 08:46:00 51°30.326 3°1.303 29.3 10.3 30 -999
2008-09-18 08:46:10 51°30.35 3°1.326 29.3 10.3 30 -999
2008-09-18 08:46:20 51°30.374 3°1.351 29.3 10.3 30 -999
2008-09-18 08:46:30 51°30.398 3°1.375 29.3 10.3 30 -999
2008-09-18 08:46:40 51°30.422 3°1.4 29.3 10.3 30 -999
2008-09-18 08:46:50 51°30.445 3°1.426 29.3 10.3 30 -999
2008-09-18 08:47:00 51°30.469 3°1.451 37.7 10.19 34 -999
2008-09-18 08:47:10 51°30.492 3°1.477 37.7 10.19 34 -999
2008-09-18 08:47:20 51°30.516 3°1.502 37.7 10.19 34 -999
2008-09-18 08:47:30 51°30.54 3°1.527 37.7 10.19 34 -999
2008-09-18 08:47:40 51°30.563 3°1.552 37.7 10.19 34 -999
2008-09-18 08:47:50 51°30.586 3°1.578 37.7 10.19 34 -999
2008-09-18 08:48:00 51°30.604 3°1.601 39.7 8.09 37 -999
2008-09-18 08:48:10 51°30.62 3°1.62 39.7 8.09 37 -999
2008-09-18 08:48:20 51°30.633 3°1.637 39.7 8.09 37 -999
2008-09-18 08:48:30 51°30.645 3°1.651 39.7 8.09 37 -999
2008-09-18 08:48:40 51°30.656 3°1.662 39.7 8.09 37 -999
2008-09-18 08:48:50 51°30.665 3°1.671 39.7 8.09 37 -999
2008-09-18 08:49:00 51°30.673 3°1.678 39.3 3.2 29 -999
2008-09-18 08:49:10 51°30.68 3°1.684 39.3 3.2 29 -999
2008-09-18 08:49:20 51°30.685 3°1.689 39.3 3.2 29 -999
2008-09-18 08:49:30 51°30.69 3°1.694 39.3 3.2 29 -999
2008-09-18 08:49:40 51°30.693 3°1.697 39.3 3.2 29 -999
2008-09-18 08:49:50 51°30.696 3°1.7 39.3 3.2 29 -999
2008-09-18 08:50:00 51°30.699 3°1.701 48.7 0.9 21 -999
2008-09-18 08:50:10 51°30.7 3°1.702 48.7 0.9 21 -999
2008-09-18 08:50:20 51°30.702 3°1.702 48.7 0.9 21 -999
2008-09-18 08:50:30 51°30.701 3°1.698 48.7 0.9 21 -999
2008-09-18 08:50:40 51°30.7 3°1.694 48.7 0.9 21 -999
2008-09-18 08:50:50 51°30.699 3°1.689 48.7 0.9 21 -999
2008-09-18 08:51:00 51°30.697 3°1.684 55.1 1.19 244 -999
2008-09-18 08:51:10 51°30.696 3°1.679 55.1 1.19 244 -999
2008-09-18 08:51:20 51°30.694 3°1.673 55.1 1.19 244 -999
2008-09-18 08:51:30 51°30.693 3°1.668 55.1 1.19 244 -999
2008-09-18 08:51:40 51°30.691 3°1.662 55.1 1.19 244 -999
2008-09-18 08:51:50 51°30.69 3°1.657 55.1 1.19 244 -999
2008-09-18 08:52:00 51°30.688 3°1.651 55.5 1.39 246 -999
2008-09-18 08:52:10 51°30.686 3°1.646 55.5 1.39 246 -999
2008-09-18 08:52:20 51°30.685 3°1.64 55.5 1.39 246 -999
2008-09-18 08:52:30 51°30.683 3°1.634 55.5 1.39 246 -999
2008-09-18 08:52:40 51°30.681 3°1.629 55.5 1.39 246 -999
2008-09-18 08:52:50 51°30.679 3°1.623 55.5 1.39 246 -999
2008-09-18 08:53:00 51°30.678 3°1.62 59.2 1 238 -999
2008-09-18 08:53:10 51°30.677 3°1.618 59.2 1 238 -999
2008-09-18 08:53:20 51°30.677 3°1.618 59.2 1 238 -999
2008-09-18 08:53:30 51°30.677 3°1.62 59.2 1 238 -999
2008-09-18 08:53:40 51°30.678 3°1.622 59.2 1 238 -999
2008-09-18 08:53:50 51°30.678 3°1.623 59.2 1 238 -999
2008-09-18 08:54:00 51°30.678 3°1.625 63.3 0.29 81 -999
2008-09-18 08:54:10 51°30.678 3°1.626 63.3 0.29 81 -999
2008-09-18 08:54:20 51°30.678 3°1.627 63.3 0.29 81 -999
2008-09-18 08:54:30 51°30.677 3°1.627 63.3 0.29 81 -999
2008-09-18 08:54:40 51°30.677 3°1.627 63.3 0.29 81 -999
2008-09-18 08:54:50 51°30.676 3°1.626 63.3 0.29 81 -999
2008-09-18 08:55:00 51°30.676 3°1.626 62.2 0.2 223 -999
2008-09-18 08:55:10 51°30.676 3°1.625 62.2 0.2 223 -999
2008-09-18 08:55:20 51°30.675 3°1.624 62.2 0.2 223 -999
2008-09-18 08:55:30 51°30.675 3°1.623 62.2 0.2 223 -999
2008-09-18 08:55:40 51°30.674 3°1.623 62.2 0.2 223 -999
2008-09-18 08:55:50 51°30.674 3°1.624 62.2 0.2 223 -999
2008-09-18 08:56:00 51°30.674 3°1.624 61.7 0.1 62 -999
2008-09-18 08:56:10 51°30.675 3°1.625 61.7 0.1 62 -999
2008-09-18 08:56:20 51°30.675 3°1.626 61.7 0.1 62 -999
2008-09-18 08:56:30 51°30.675 3°1.627 61.7 0.1 62 -999
2008-09-18 08:56:40 51°30.675 3°1.627 61.7 0.1 62 -999
2008-09-18 08:56:50 51°30.675 3°1.628 61.7 0.1 62 -999
2008-09-18 08:57:00 51°30.675 3°1.628 59.7 0.1 334 -999
2008-09-18 08:57:10 51°30.676 3°1.628 59.7 0.1 334 -999
2008-09-18 08:57:20 51°30.676 3°1.627 59.7 0.1 334 -999
2008-09-18 08:57:30 51°30.676 3°1.626 59.7 0.1 334 -999
2008-09-18 08:57:40 51°30.676 3°1.626 59.7 0.1 334 -999
2008-09-18 08:57:50 51°30.675 3°1.624 59.7 0.1 334 -999
2008-09-18 08:58:00 51°30.675 3°1.624 57.5 0.2 262 -999
2008-09-18 08:58:10 51°30.675 3°1.623 57.5 0.2 262 -999
2008-09-18 08:58:20 51°30.675 3°1.623 57.5 0.2 262 -999
2008-09-18 08:58:30 51°30.676 3°1.623 57.5 0.2 262 -999
2008-09-18 08:58:40 51°30.676 3°1.623 57.5 0.2 262 -999
2008-09-18 08:58:50 51°30.676 3°1.624 57.5 0.2 262 -999
2008-09-18 08:59:00 51°30.676 3°1.624 58.8 0.1 65 -999
2008-09-18 08:59:10 51°30.676 3°1.625 58.8 0.1 65 -999
2008-09-18 08:59:20 51°30.676 3°1.626 58.8 0.1 65 -999
2008-09-18 08:59:30 51°30.676 3°1.626 58.8 0.1 65 -999
2008-09-18 08:59:40 51°30.676 3°1.626 58.8 0.1 65 -999
2008-09-18 08:59:50 51°30.675 3°1.626 58.8 0.1 65 -999
2008-09-18 09:00:00 51°30.675 3°1.626 61.1 0.1 194 -999
2008-09-18 09:00:10 51°30.675 3°1.626 61.1 0.1 194 -999
2008-09-18 09:00:20 51°30.675 3°1.626 61.1 0.1 194 -999
2008-09-18 09:00:30 51°30.675 3°1.625 61.1 0.1 194 -999
2008-09-18 09:00:40 51°30.675 3°1.624 61.1 0.1 194 -999
2008-09-18 09:00:50 51°30.675 3°1.624 61.1 0.1 194 -999
2008-09-18 09:01:00 51°30.675 3°1.624 59 0.1 29 -999
2008-09-18 09:01:10 51°30.675 3°1.625 59 0.1 29 -999
2008-09-18 09:01:20 51°30.675 3°1.625 59 0.1 29 -999
2008-09-18 09:01:30 51°30.675 3°1.625 59 0.1 29 -999
2008-09-18 09:01:40 51°30.675 3°1.626 59 0.1 29 -999
2008-09-18 09:01:50 51°30.675 3°1.626 59 0.1 29 -999
2008-09-18 09:02:00 51°30.675 3°1.626 61.1 0.1 131 -999
2008-09-18 09:02:10 51°30.675 3°1.626 61.1 0.1 131 -999
2008-09-18 09:02:20 51°30.675 3°1.627 61.1 0.1 131 -999
2008-09-18 09:02:30 51°30.675 3°1.627 61.1 0.1 131 -999
2008-09-18 09:02:40 51°30.675 3°1.626 61.1 0.1 131 -999
2008-09-18 09:02:50 51°30.675 3°1.626 61.1 0.1 131 -999
2008-09-18 09:03:00 51°30.675 3°1.626 60.3 0.1 268 -999
2008-09-18 09:03:10 51°30.675 3°1.625 60.3 0.1 268 -999
2008-09-18 09:03:20 51°30.675 3°1.625 60.3 0.1 268 -999
2008-09-18 09:03:30 51°30.675 3°1.625 60.3 0.1 268 -999
2008-09-18 09:03:40 51°30.675 3°1.625 60.3 0.1 268 -999
2008-09-18 09:03:50 51°30.675 3°1.625 60.3 0.1 268 -999
2008-09-18 09:04:00 51°30.675 3°1.625 59.5   338 -999
2008-09-18 09:04:10 51°30.675 3°1.625 59.5   338 -999
2008-09-18 09:04:20 51°30.676 3°1.625 59.5   338 -999
2008-09-18 09:04:30 51°30.676 3°1.625 59.5   338 -999
2008-09-18 09:04:40 51°30.676 3°1.625 59.5   338 -999
2008-09-18 09:04:50 51°30.676 3°1.625 59.5   338 -999
2008-09-18 09:05:00 51°30.676 3°1.626 59 0.1 115 -999
2008-09-18 09:05:10 51°30.676 3°1.625 59 0.1 115 -999
2008-09-18 09:05:20 51°30.676 3°1.626 59 0.1 115 -999
2008-09-18 09:05:30 51°30.676 3°1.625 59 0.1 115 -999
2008-09-18 09:05:40 51°30.676 3°1.625 59 0.1 115 -999
2008-09-18 09:05:50 51°30.675 3°1.625 59 0.1 115 -999
2008-09-18 09:06:00 51°30.675 3°1.625 59.2   254 -999
2008-09-18 09:06:10 51°30.675 3°1.625 59.2   254 -999
2008-09-18 09:06:20 51°30.675 3°1.624 59.2   254 -999
2008-09-18 09:06:30 51°30.676 3°1.624 59.2   254 -999
2008-09-18 09:06:40 51°30.676 3°1.624 59.2   254 -999
2008-09-18 09:06:50 51°30.676 3°1.624 59.2   254 -999
2008-09-18 09:07:00 51°30.676 3°1.624 57.2 0.1 356 -999
2008-09-18 09:07:10 51°30.676 3°1.624 57.2 0.1 356 -999
2008-09-18 09:07:20 51°30.677 3°1.624 57.2 0.1 356 -999
2008-09-18 09:07:30 51°30.677 3°1.623 57.2 0.1 356 -999
2008-09-18 09:07:40 51°30.677 3°1.623 57.2 0.1 356 -999
2008-09-18 09:07:50 51°30.677 3°1.623 57.2 0.1 356 -999
2008-09-18 09:08:00 51°30.677 3°1.623 58.1 0.1 303 -999
2008-09-18 09:08:10 51°30.677 3°1.622 58.1 0.1 303 -999
2008-09-18 09:08:20 51°30.677 3°1.622 58.1 0.1 303 -999
2008-09-18 09:08:30 51°30.677 3°1.622 58.1 0.1 303 -999
2008-09-18 09:08:40 51°30.677 3°1.622 58.1 0.1 303 -999
2008-09-18 09:08:50 51°30.678 3°1.621 58.1 0.1 303 -999
2008-09-18 09:09:00 51°30.678 3°1.621 58.5   22 -999
2008-09-18 09:09:10 51°30.678 3°1.621 58.5   22 -999
2008-09-18 09:09:20 51°30.678 3°1.622 58.5   22 -999
2008-09-18 09:09:30 51°30.678 3°1.621 58.5   22 -999
2008-09-18 09:09:40 51°30.678 3°1.621 58.5   22 -999
2008-09-18 09:09:50 51°30.678 3°1.621 58.5   22 -999
2008-09-18 09:10:00 51°30.679 3°1.621 58.7 0.1 324 -999
2008-09-18 09:10:10 51°30.679 3°1.621 58.7 0.1 324 -999
2008-09-18 09:10:20 51°30.679 3°1.621 58.7 0.1 324 -999
2008-09-18 09:10:30 51°30.679 3°1.621 58.7 0.1 324 -999
2008-09-18 09:10:40 51°30.679 3°1.621 58.7 0.1 324 -999
2008-09-18 09:10:50 51°30.679 3°1.621 58.7 0.1 324 -999
2008-09-18 09:11:00 51°30.678 3°1.621 61.6 0.1 154 -999
2008-09-18 09:11:10 51°30.678 3°1.621 61.6 0.1 154 -999
2008-09-18 09:11:20 51°30.678 3°1.621 61.6 0.1 154 -999
2008-09-18 09:11:30 51°30.678 3°1.622 61.6 0.1 154 -999
2008-09-18 09:11:40 51°30.677 3°1.622 61.6 0.1 154 -999
2008-09-18 09:11:50 51°30.677 3°1.622 61.6 0.1 154 -999
2008-09-18 09:12:00 51°30.677 3°1.623 62.8 0.1 139 -999
2008-09-18 09:12:10 51°30.676 3°1.623 62.8 0.1 139 -999
2008-09-18 09:12:20 51°30.676 3°1.623 62.8 0.1 139 -999
2008-09-18 09:12:30 51°30.676 3°1.624 62.8 0.1 139 -999
2008-09-18 09:12:40 51°30.676 3°1.623 62.8 0.1 139 -999
2008-09-18 09:12:50 51°30.676 3°1.623 62.8 0.1 139 -999
2008-09-18 09:13:00 51°30.676 3°1.623 61.6 0.1 247 -999
2008-09-18 09:13:10 51°30.676 3°1.623 61.6 0.1 247 -999
2008-09-18 09:13:20 51°30.676 3°1.623 61.6 0.1 247 -999
2008-09-18 09:13:30 51°30.675 3°1.623 61.6 0.1 247 -999
2008-09-18 09:13:40 51°30.675 3°1.623 61.6 0.1 247 -999
2008-09-18 09:13:50 51°30.675 3°1.623 61.6 0.1 247 -999
2008-09-18 09:14:00 51°30.675 3°1.623 60.6   122 -999
2008-09-18 09:14:10 51°30.675 3°1.623 60.6   122 -999
2008-09-18 09:14:20 51°30.675 3°1.623 60.6   122 -999
2008-09-18 09:14:30 51°30.675 3°1.623 60.6   122 -999
2008-09-18 09:14:40 51°30.675 3°1.623 60.6   122 -999
2008-09-18 09:14:50 51°30.675 3°1.623 60.6   122 -999
2008-09-18 09:15:00 51°30.675 3°1.623 60.5   339 -999
2008-09-18 09:15:10 51°30.675 3°1.623 60.5   339 -999
2008-09-18 09:15:20 51°30.675 3°1.623 60.5   339 -999
2008-09-18 09:15:30 51°30.675 3°1.623 60.5   339 -999
2008-09-18 09:15:40 51°30.675 3°1.623 60.5   339 -999
2008-09-18 09:15:50 51°30.676 3°1.622 60.5   339 -999
2008-09-18 09:16:00 51°30.676 3°1.622 59.5 0.1 326 -999
2008-09-18 09:16:10 51°30.676 3°1.622 59.5 0.1 326 -999
2008-09-18 09:16:20 51°30.676 3°1.623 59.5 0.1 326 -999
2008-09-18 09:16:30 51°30.676 3°1.623 59.5 0.1 326 -999
2008-09-18 09:16:40 51°30.676 3°1.623 59.5 0.1 326 -999
2008-09-18 09:16:50 51°30.676 3°1.623 59.5 0.1 326 -999
2008-09-18 09:17:00 51°30.676 3°1.623 60.3 0.1 146 -999
2008-09-18 09:17:10 51°30.676 3°1.623 60.3 0.1 146 -999
2008-09-18 09:17:20 51°30.676 3°1.623 60.3 0.1 146 -999
2008-09-18 09:17:30 51°30.676 3°1.623 60.3 0.1 146 -999
2008-09-18 09:17:40 51°30.676 3°1.623 60.3 0.1 146 -999
2008-09-18 09:17:50 51°30.675 3°1.624 60.3 0.1 146 -999
2008-09-18 09:18:00 51°30.675 3°1.623 60.7   213 -999
2008-09-18 09:18:10 51°30.675 3°1.623 60.7   213 -999
2008-09-18 09:18:20 51°30.675 3°1.623 60.7   213 -999
2008-09-18 09:18:30 51°30.675 3°1.624 60.7   213 -999
2008-09-18 09:18:40 51°30.675 3°1.623 60.7   213 -999
2008-09-18 09:18:50 51°30.675 3°1.624 60.7   213 -999
2008-09-18 09:19:00 51°30.675 3°1.624 60.2   334 -999
2008-09-18 09:19:10 51°30.675 3°1.624 60.2   334 -999
2008-09-18 09:19:20 51°30.675 3°1.624 60.2   334 -999
2008-09-18 09:19:30 51°30.675 3°1.623 60.2   334 -999
2008-09-18 09:19:40 51°30.676 3°1.623 60.2   334 -999
2008-09-18 09:19:50 51°30.676 3°1.623 60.2   334 -999
2008-09-18 09:20:00 51°30.676 3°1.623 58.5 0.1 305 -999
2008-09-18 09:20:10 51°30.676 3°1.623 58.5 0.1 305 -999
2008-09-18 09:20:20 51°30.676 3°1.623 58.5 0.1 305 -999
2008-09-18 09:20:30 51°30.676 3°1.623 58.5 0.1 305 -999
2008-09-18 09:20:40 51°30.677 3°1.623 58.5 0.1 305 -999
2008-09-18 09:20:50 51°30.677 3°1.623 58.5 0.1 305 -999
2008-09-18 09:21:00 51°30.677 3°1.623 58.6   77 -999
2008-09-18 09:21:10 51°30.677 3°1.624 58.6   77 -999
2008-09-18 09:21:20 51°30.676 3°1.624 58.6   77 -999
2008-09-18 09:21:30 51°30.676 3°1.624 58.6   77 -999
2008-09-18 09:21:40 51°30.676 3°1.624 58.6   77 -999
2008-09-18 09:21:50 51°30.676 3°1.624 58.6   77 -999
2008-09-18 09:22:00 51°30.676 3°1.624 59.7 0.1 169 -999
2008-09-18 09:22:10 51°30.676 3°1.624 59.7 0.1 169 -999
2008-09-18 09:22:20 51°30.676 3°1.624 59.7 0.1 169 -999
2008-09-18 09:22:30 51°30.676 3°1.624 59.7 0.1 169 -999
2008-09-18 09:22:40 51°30.676 3°1.624 59.7 0.1 169 -999
2008-09-18 09:22:50 51°30.676 3°1.624 59.7 0.1 169 -999
2008-09-18 09:23:00 51°30.677 3°1.624 57.5 0.1 336 -999
2008-09-18 09:23:10 51°30.677 3°1.624 57.5 0.1 336 -999
2008-09-18 09:23:20 51°30.677 3°1.624 57.5 0.1 336 -999
2008-09-18 09:23:30 51°30.677 3°1.624 57.5 0.1 336 -999
2008-09-18 09:23:40 51°30.677 3°1.624 57.5 0.1 336 -999
2008-09-18 09:23:50 51°30.677 3°1.624 57.5 0.1 336 -999
2008-09-18 09:24:00 51°30.677 3°1.624 58.6   44 -999
2008-09-18 09:24:10 51°30.677 3°1.624 58.6   44 -999
2008-09-18 09:24:20 51°30.677 3°1.624 58.6   44 -999
2008-09-18 09:24:30 51°30.677 3°1.624 58.6   44 -999
2008-09-18 09:24:40 51°30.677 3°1.624 58.6   44 -999
2008-09-18 09:24:50 51°30.677 3°1.624 58.6   44 -999
2008-09-18 09:25:00 51°30.677 3°1.624 57.5   235 -999
2008-09-18 09:25:10 51°30.677 3°1.623 57.5   235 -999
2008-09-18 09:25:20 51°30.677 3°1.623 57.5   235 -999
2008-09-18 09:25:30 51°30.678 3°1.623 57.5   235 -999
2008-09-18 09:25:40 51°30.678 3°1.623 57.5   235 -999
2008-09-18 09:25:50 51°30.678 3°1.623 57.5   235 -999
2008-09-18 09:26:00 51°30.678 3°1.623 57 0.1 24 -999
2008-09-18 09:26:10 51°30.678 3°1.624 57 0.1 24 -999
2008-09-18 09:26:20 51°30.678 3°1.624 57 0.1 24 -999
2008-09-18 09:26:30 51°30.678 3°1.624 57 0.1 24 -999
2008-09-18 09:26:40 51°30.677 3°1.624 57 0.1 24 -999
2008-09-18 09:26:50 51°30.678 3°1.624 57 0.1 24 -999
2008-09-18 09:27:00 51°30.677 3°1.624 59.2   177 -999
2008-09-18 09:27:10 51°30.677 3°1.624 59.2   177 -999
2008-09-18 09:27:20 51°30.677 3°1.624 59.2   177 -999
2008-09-18 09:27:30 51°30.677 3°1.624 59.2   177 -999
2008-09-18 09:27:40 51°30.677 3°1.624 59.2   177 -999
2008-09-18 09:27:50 51°30.677 3°1.624 59.2   177 -999
2008-09-18 09:28:00 51°30.677 3°1.625 59.3   120 -999
2008-09-18 09:28:10 51°30.676 3°1.624 59.3   120 -999
2008-09-18 09:28:20 51°30.676 3°1.625 59.3   120 -999
2008-09-18 09:28:30 51°30.676 3°1.625 59.3   120 -999
2008-09-18 09:28:40 51°30.676 3°1.625 59.3   120 -999
2008-09-18 09:28:50 51°30.676 3°1.625 59.3   120 -999
2008-09-18 09:29:00 51°30.676 3°1.625 59.3   135 -999
2008-09-18 09:29:10 51°30.676 3°1.626 59.3   135 -999
2008-09-18 09:29:20 51°30.676 3°1.626 59.3   135 -999
2008-09-18 09:29:30 51°30.676 3°1.626 59.3   135 -999
2008-09-18 09:29:40 51°30.676 3°1.625 59.3   135 -999
2008-09-18 09:29:50 51°30.676 3°1.625 59.3   135 -999
2008-09-18 09:30:00 51°30.676 3°1.625 57.2 0.1 330 -999
2008-09-18 09:30:10 51°30.676 3°1.625 57.2 0.1 330 -999
2008-09-18 09:30:20 51°30.677 3°1.625 57.2 0.1 330 -999
2008-09-18 09:30:30 51°30.677 3°1.625 57.2 0.1 330 -999
2008-09-18 09:30:40 51°30.677 3°1.625 57.2 0.1 330 -999
2008-09-18 09:30:50 51°30.677 3°1.625 57.2 0.1 330 -999
2008-09-18 09:31:00 51°30.678 3°1.625 58   350 -999
2008-09-18 09:31:10 51°30.677 3°1.625 58   350 -999
2008-09-18 09:31:20 51°30.677 3°1.625 58   350 -999
2008-09-18 09:31:30 51°30.677 3°1.625 58   350 -999
2008-09-18 09:31:40 51°30.676 3°1.625 58   350 -999
2008-09-18 09:31:50 51°30.676 3°1.625 58   350 -999
2008-09-18 09:32:00 51°30.676 3°1.625 59.1 0.1 188 -999
2008-09-18 09:32:10 51°30.676 3°1.625 59.1 0.1 188 -999
2008-09-18 09:32:20 51°30.676 3°1.625 59.1 0.1 188 -999
2008-09-18 09:32:30 51°30.675 3°1.625 59.1 0.1 188 -999
2008-09-18 09:32:40 51°30.675 3°1.625 59.1 0.1 188 -999
2008-09-18 09:32:50 51°30.675 3°1.625 59.1 0.1 188 -999
2008-09-18 09:33:00 51°30.675 3°1.625 59.2 0.1 127 -999
2008-09-18 09:33:10 51°30.675 3°1.625 59.2 0.1 127 -999
2008-09-18 09:33:20 51°30.675 3°1.626 59.2 0.1 127 -999
2008-09-18 09:33:30 51°30.675 3°1.626 59.2 0.1 127 -999
2008-09-18 09:33:40 51°30.675 3°1.626 59.2 0.1 127 -999
2008-09-18 09:33:50 51°30.675 3°1.626 59.2 0.1 127 -999
2008-09-18 09:34:00 51°30.675 3°1.626 58.7   339 -999
2008-09-18 09:34:10 51°30.675 3°1.626 58.7   339 -999
2008-09-18 09:34:20 51°30.675 3°1.626 58.7   339 -999
2008-09-18 09:34:30 51°30.675 3°1.626 58.7   339 -999
2008-09-18 09:34:40 51°30.674 3°1.626 58.7   339 -999
2008-09-18 09:34:50 51°30.674 3°1.626 58.7   339 -999
2008-09-18 09:35:00 51°30.674 3°1.626 58.2 0.1 227 -999
2008-09-18 09:35:10 51°30.674 3°1.626 58.2 0.1 227 -999
2008-09-18 09:35:20 51°30.674 3°1.625 58.2 0.1 227 -999
2008-09-18 09:35:30 51°30.674 3°1.625 58.2 0.1 227 -999
2008-09-18 09:35:40 51°30.674 3°1.625 58.2 0.1 227 -999
2008-09-18 09:35:50 51°30.674 3°1.625 58.2 0.1 227 -999
2008-09-18 09:36:00 51°30.674 3°1.626 57.6 0.1 112 -999
2008-09-18 09:36:10 51°30.674 3°1.626 57.6 0.1 112 -999
2008-09-18 09:36:20 51°30.674 3°1.626 57.6 0.1 112 -999
2008-09-18 09:36:30 51°30.675 3°1.626 57.6 0.1 112 -999
2008-09-18 09:36:40 51°30.675 3°1.627 57.6 0.1 112 -999
2008-09-18 09:36:50 51°30.675 3°1.627 57.6 0.1 112 -999
2008-09-18 09:37:00 51°30.675 3°1.627 58.5 0.1 293 -999
2008-09-18 09:37:10 51°30.675 3°1.627 58.5 0.1 293 -999
2008-09-18 09:37:20 51°30.675 3°1.627 58.5 0.1 293 -999
2008-09-18 09:37:30 51°30.674 3°1.626 58.5 0.1 293 -999
2008-09-18 09:37:40 51°30.674 3°1.627 58.5 0.1 293 -999
2008-09-18 09:37:50 51°30.674 3°1.627 58.5 0.1 293 -999
2008-09-18 09:38:00 51°30.674 3°1.627 58   214 -999
2008-09-18 09:38:10 51°30.674 3°1.626 58   214 -999
2008-09-18 09:38:20 51°30.674 3°1.626 58   214 -999
2008-09-18 09:38:30 51°30.675 3°1.626 58   214 -999
2008-09-18 09:38:40 51°30.675 3°1.626 58   214 -999
2008-09-18 09:38:50 51°30.675 3°1.626 58   214 -999
2008-09-18 09:39:00 51°30.675 3°1.626 55.6 0.1 332 -999
2008-09-18 09:39:10 51°30.675 3°1.626 55.6 0.1 332 -999
2008-09-18 09:39:20 51°30.675 3°1.625 55.6 0.1 332 -999
2008-09-18 09:39:30 51°30.676 3°1.625 55.6 0.1 332 -999
2008-09-18 09:39:40 51°30.676 3°1.625 55.6 0.1 332 -999
2008-09-18 09:39:50 51°30.676 3°1.625 55.6 0.1 332 -999
2008-09-18 09:40:00 51°30.676 3°1.625 56.7   315 -999
2008-09-18 09:40:10 51°30.676 3°1.624 56.7   315 -999
2008-09-18 09:40:20 51°30.677 3°1.624 56.7   315 -999
2008-09-18 09:40:30 51°30.677 3°1.624 56.7   315 -999
2008-09-18 09:40:40 51°30.677 3°1.624 56.7   315 -999
2008-09-18 09:40:50 51°30.677 3°1.624 56.7   315 -999
2008-09-18 09:41:00 51°30.677 3°1.624 56.7   108 -999